R/V Atlantis Calliope CSV data file - AT15_LXV  (Time stamps are GMT)
Date, Time_GMT, AT, WXTP_Ta, WXTS_Ta, WXTS_Pa, BPR, WXTP_Pa, Dec_Lat, Dec_Lon, COG, SOG, HRH, PhinsHd, PRC, WXTP_Rc, WXTS_Rc, WXTS_Ri, WXTP_Ri, WXTS_Dm, WXTS_Sm, WXTP_Dm, WXTP_Sm, WXTS_Ua, WXTP_Ua, Salinity, SSTMP, HDT, SWR, SSV, SSCND, WXTP_TD, WXTS_TD, Wnd_TD, Wnd_TS, WXTP_TS, WXTS_TS, Fluorometer, HdChkSum=4B
2010/05/21, 00:00:39, , , , , , , 33.574267, -117.889767, 245.0, 9.80, , 244.4, , , , , , , , , , , , , 17.962, 244.4, , , , , , , , , , , 4B
2010/05/21, 00:01:39, , , , , , , 33.573012, -117.892823, 243.7, 10.40, , 243.9, , , , , , , , , , , , , 17.984, 244.0, , , , , , , , , , , 4B
2010/05/21, 00:02:39, , , , , , , 33.571750, -117.895942, 244.9, 10.40, , 244.7, , , , , , , , , , , , , 17.985, 244.5, , , , , , , , , , , 4B
2010/05/21, 00:03:39, , , , , , , 33.570513, -117.899108, 245.3, 10.60, , 244.9, , , , , , , , , , , , , 17.984, 244.6, , , , , , , , , , , 4B
2010/05/21, 00:04:39, , , , , , , 33.569225, -117.902363, 244.9, 11.10, , 244.8, , , , , , , , , , , , , 17.988, 244.7, , , , , , , , , , , 4B
2010/05/21, 00:05:38, , , , , , , 33.567930, -117.905660, 244.5, 10.90, , 245.2, , , , , , , , , , , , , 18.005, 244.8, , , , , , , , , , , 4B
2010/05/21, 00:06:38, , , , , , , 33.566685, -117.908887, 245.3, 10.50, , 244.9, , , , , , , , , , , , , 18.046, 245.0, , , , , , , , , , , 4B
2010/05/21, 00:07:38, , , , , , , 33.565442, -117.912092, 245.2, 10.60, , 244.7, , , , , , , , , , , , , 18.085, 245.0, , , , , , , , , , , 4B
2010/05/21, 00:08:38, , , , , , , 33.564178, -117.915287, 244.6, 10.40, , 244.8, , , , , , , , , , , , , 18.126, 244.8, , , , , , , , , , , 4B
2010/05/21, 00:09:38, , , , , , , 33.562948, -117.918437, 244.9, 10.50, , 245.6, , , , , , , , , , , , , 18.133, 245.5, , , , , , , , , , , 4B
2010/05/21, 00:10:38, , , , , , , 33.561857, -117.921722, 251.6, 10.70, , 251.5, , , , , , , , , , , , , 18.120, 250.9, , , , , , , , , , , 4B
2010/05/21, 00:11:38, , , , , , , 33.560845, -117.925077, 249.8, 10.80, , 249.7, , , , , , , , , , , , , 18.122, 249.5, , , , , , , , , , , 4B
2010/05/21, 00:12:38, , , , , , , 33.559785, -117.928417, 249.0, 10.80, , 249.9, , , , , , , , , , , , , 18.140, 252.3, , , , , , , , , , , 4B
2010/05/21, 00:13:38, , , , , , , 33.558985, -117.931825, 255.0, 10.80, , 254.6, , , , , , , , , , , , , 18.184, 254.5, , , , , , , , , , , 4B
2010/05/21, 00:14:38, , , , , , , 33.558167, -117.935250, 253.9, 10.70, , 254.5, , , , , , , , , , , , , 18.226, 254.1, , , , , , , , , , , 4B
2010/05/21, 00:15:38, , , , , , , 33.557342, -117.938692, 254.2, 10.90, , 254.7, , , , , , , , , , , , , 18.246, 254.8, , , , , , , , , , , 4B
2010/05/21, 00:16:39, , , , , , , 33.556528, -117.942158, 254.3, 10.90, , 255.0, , , , , , , , , , , , , 18.252, 255.2, , , , , , , , , , , 4B
2010/05/21, 00:17:39, , , , , , , 33.555735, -117.945653, 254.8, 10.70, , 255.2, , , , , , , , , , , , , 18.259, 255.0, , , , , , , , , , , 4B
2010/05/21, 00:18:39, , , , , , , 33.554938, -117.949110, 255.3, 10.60, , 255.2, , , , , , , , , , , , , 18.278, 255.4, , , , , , , , , , , 4B
2010/05/21, 00:19:39, , , , , , , 33.554152, -117.952590, 255.0, 10.70, , 254.8, , , , , , , , , , , , , 18.297, 255.0, , , , , , , , , , , 4B
2010/05/21, 00:20:39, , , , , , , 33.553342, -117.956053, 254.7, 10.90, , 255.2, , , , , , , , , , , , , 18.313, 255.0, , , , , , , , , , , 4B
2010/05/21, 00:21:39, , , , , , , 33.552590, -117.959495, 256.0, 10.70, , 255.7, , , , , , , , , , , , , 18.316, 255.5, , , , , , , , , , , 4B
2010/05/21, 00:22:39, , , , , , , 33.551850, -117.962953, 256.3, 10.70, , 255.0, , , , , , , , , , , , , 18.334, 255.0, , , , , , , , , , , 4B
2010/05/21, 00:23:39, , , , , , , 33.551093, -117.966397, 255.5, 10.70, , 254.9, , , , , , , , , , , , , 18.377, 254.9, , , , , , , , , , , 4B
2010/05/21, 00:24:39, , , , , , , 33.550503, -117.969888, 261.2, 10.60, , 260.5, , , , , , , , , , , , , 18.405, 260.5, , , , , , , , , , , 4B
2010/05/21, 00:25:39, , , , , , , 33.550027, -117.973390, 260.0, 10.60, , 258.9, , , , , , , , , , , , , 18.431, 259.0, , , , , , , , , , , 4B
2010/05/21, 00:26:39, , , , , , , 33.549510, -117.976860, 259.5, 10.70, , 259.6, , , , , , , , , , , , , 18.459, 259.5, , , , , , , , , , , 4B
2010/05/21, 00:27:39, , , , , , , 33.549013, -117.980380, 260.0, 10.70, , 259.8, , , , , , , , , , , , , 18.459, 260.1, , , , , , , , , , , 4B
2010/05/21, 00:28:39, , , , , , , 33.548498, -117.983917, 260.4, 10.70, , 260.0, , , , , , , , , , , , , 18.450, 260.2, , , , , , , , , , , 4B
2010/05/21, 00:29:39, , , , , , , 33.547977, -117.987473, 259.6, 10.80, , 259.8, , , , , , , , , , , , , 18.420, 259.8, , , , , , , , , , , 4B
2010/05/21, 00:30:39, , , , , , , 33.547457, -117.991025, 260.2, 10.80, , 260.5, , , , , , , , , , , , , 18.397, 260.2, , , , , , , , , , , 4B
2010/05/21, 00:31:39, , , , , , , 33.546937, -117.994608, 260.4, 10.90, , 260.5, , , , , , , , , , , , , 18.400, 260.8, , , , , , , , , , , 4B
2010/05/21, 00:32:39, , , , , , , 33.546488, -117.998147, 261.4, 10.70, , 260.4, , , , , , , , , , , , , 18.449, 260.2, , , , , , , , , , , 4B
2010/05/21, 00:33:39, , , , , , , 33.546000, -118.001628, 260.2, 10.60, , 260.0, , , , , , , , , , , , , 18.509, 259.9, , , , , , , , , , , 4B
2010/05/21, 00:34:39, , , , , , , 33.545502, -118.005183, 260.5, 10.80, , 259.8, , , , , , , , , , , , , 18.547, 259.9, , , , , , , , , , , 4B
2010/05/21, 00:35:39, , , , , , , 33.545025, -118.008703, 260.2, 10.60, , 260.1, , , , , , , , , , , , , 18.545, 260.5, , , , , , , , , , , 4B
2010/05/21, 00:36:39, , , , , , , 33.544563, -118.012205, 260.8, 10.70, , 260.6, , , , , , , , , , , , , 18.518, 260.6, , , , , , , , , , , 4B
2010/05/21, 00:37:39, , , , , , , 33.544075, -118.015708, 260.2, 10.70, , 260.5, , , , , , , , , , , , , 18.455, 260.5, , , , , , , , , , , 4B
2010/05/21, 00:38:38, , , , , , , 33.543570, -118.019207, 260.0, 10.70, , 260.3, , , , , , , , , , , , , 18.369, 260.4, , , , , , , , , , , 4B
2010/05/21, 00:39:38, , , , , , , 33.543050, -118.022697, 260.0, 10.70, , 260.1, , , , , , , , , , , , , 18.299, 259.8, , , , , , , , , , , 4B
2010/05/21, 00:40:38, , , , , , , 33.542508, -118.026182, 259.5, 10.70, , 260.1, , , , , , , , , , , , , 18.222, 260.0, , , , , , , , , , , 4B
2010/05/21, 00:41:38, , , , , , , 33.541967, -118.029670, 259.0, 10.60, , 260.4, , , , , , , , , , , , , 18.102, 260.7, , , , , , , , , , , 4B
2010/05/21, 00:42:38, , , , , , , 33.541448, -118.033120, 259.5, 10.40, , 260.7, , , , , , , , , , , , , 17.968, 260.7, , , , , , , , , , , 4B
2010/05/21, 00:43:38, , , , , , , 33.540930, -118.036565, 259.5, 10.60, , 260.1, , , , , , , , , , , , , 17.857, 260.4, , , , , , , , , , , 4B
2010/05/21, 00:44:38, , , , , , , 33.540405, -118.040013, 259.6, 10.40, , 260.4, , , , , , , , , , , , , 17.764, 260.4, , , , , , , , , , , 4B
2010/05/21, 00:45:38, , , , , , , 33.539867, -118.043443, 259.4, 10.50, , 260.3, , , , , , , , , , , , , 17.670, 260.1, , , , , , , , , , , 4B
2010/05/21, 00:46:38, , , , , , , 33.539337, -118.046840, 259.0, 10.40, , 260.1, , , , , , , , , , , , , 17.605, 260.4, , , , , , , , , , , 4B
2010/05/21, 00:47:38, , , , , , , 33.538812, -118.050245, 259.1, 10.50, , 259.8, , , , , , , , , , , , , 17.577, 260.2, , , , , , , , , , , 4B
2010/05/21, 00:48:38, , , , , , , 33.538292, -118.053675, 260.4, 10.60, , 260.9, , , , , , , , , , , , , 17.562, 260.5, , , , , , , , , , , 4B
2010/05/21, 00:49:38, , , , , , , 33.537757, -118.057068, 259.1, 10.40, , 260.6, , , , , , , , , , , , , 17.532, 260.7, , , , , , , , , , , 4B
2010/05/21, 00:50:38, , , , , , , 33.537248, -118.060483, 260.0, 10.60, , 260.6, , , , , , , , , , , , , 17.490, 260.7, , , , , , , , , , , 4B
2010/05/21, 00:51:38, , , , , , , 33.536733, -118.063903, 259.5, 10.50, , 260.2, , , , , , , , , , , , , 17.458, 260.1, , , , , , , , , , , 4B
2010/05/21, 00:52:38, , , , , , , 33.536200, -118.067337, 259.8, 10.40, , 260.7, , , , , , , , , , , , , 17.437, 260.9, , , , , , , , , , , 4B
2010/05/21, 00:53:38, , , , , , , 33.535668, -118.070750, 259.5, 10.30, , 260.3, , , , , , , , , , , , , 17.400, 260.2, , , , , , , , , , , 4B
2010/05/21, 00:54:38, , , , , , , 33.535155, -118.074092, 259.5, 10.40, , 260.6, , , , , , , , , , , , , 17.340, 260.4, , , , , , , , , , , 4B
2010/05/21, 00:55:38, , , , , , , 33.534625, -118.077502, 259.4, 10.40, , 260.1, , , , , , , , , , , , , 17.264, 260.1, , , , , , , , , , , 4B
2010/05/21, 00:56:38, , , , , , , 33.534105, -118.080902, 259.8, 10.40, , 260.6, , , , , , , , , , , , , 17.203, 260.8, , , , , , , , , , , 4B
2010/05/21, 00:57:39, , , , , , , 33.533585, -118.084327, 259.9, 10.60, , 260.6, , , , , , , , , , , , , 17.167, 260.5, , , , , , , , , , , 4B
2010/05/21, 00:58:39, , , , , , , 33.533075, -118.087758, 259.3, 10.40, , 260.2, , , , , , , , , , , , , 17.151, 260.4, , , , , , , , , , , 4B
2010/05/21, 00:59:39, , , , , , , 33.532537, -118.091180, 259.1, 10.50, , 260.2, , , , , , , , , , , , , 17.139, 260.5, , , , , , , , , , , 4B
2010/05/21, 01:00:39, , , , , , , 33.532010, -118.094615, 259.8, 10.30, , 260.9, , , , , , , , , , , , , 17.114, 260.6, , , , , , , , , , , 4B
2010/05/21, 01:01:39, , , , , , , 33.531498, -118.098040, 259.7, 10.50, , 260.1, , , , , , , , , , , , , 17.090, 259.9, , , , , , , , , , , 4B
2010/05/21, 01:02:39, , , , , , , 33.530938, -118.101533, 259.5, 10.50, , 259.9, , , , , , , , , , , , , 17.054, 259.8, , , , , , , , , , , 4B
2010/05/21, 01:03:39, , , , , , , 33.530377, -118.105017, 259.4, 10.70, , 260.0, , , , , , , , , , , , , 16.994, 259.9, , , , , , , , , , , 4B
2010/05/21, 01:04:39, , , , , , , 33.529843, -118.108530, 259.4, 10.70, , 260.5, , , , , , , , , , , , , 16.917, 260.8, , , , , , , , , , , 4B
2010/05/21, 01:05:39, , , , , , , 33.529313, -118.112030, 259.6, 10.70, , 260.4, , , , , , , , , , , , , 16.829, 260.2, , , , , , , , , , , 4B
2010/05/21, 01:06:39, , , , , , , 33.528772, -118.115520, 259.6, 10.70, , 260.3, , , , , , , , , , , , , 16.730, 260.2, , , , , , , , , , , 4B
2010/05/21, 01:07:39, , , , , , , 33.528228, -118.119008, 259.4, 10.60, , 260.1, , , , , , , , , , , , , 16.618, 259.8, , , , , , , , , , , 4B
2010/05/21, 01:08:39, , , , , , , 33.527682, -118.122515, 259.2, 10.60, , 260.3, , , , , , , , , , , , , 16.497, 260.2, , , , , , , , , , , 4B
2010/05/21, 01:09:39, , , , , , , 33.527142, -118.126042, 259.3, 10.60, , 259.8, , , , , , , , , , , , , 16.371, 259.7, , , , , , , , , , , 4B
2010/05/21, 01:10:39, , , , , , , 33.526608, -118.129552, 259.6, 10.90, , 260.3, , , , , , , , , , , , , 16.248, 260.5, , , , , , , , , , , 4B
2010/05/21, 01:11:39, , , , , , , 33.526107, -118.133060, 259.9, 10.60, , 260.5, , , , , , , , , , , , , 16.160, 260.4, , , , , , , , , , , 4B
2010/05/21, 01:12:39, , , , , , , 33.525595, -118.136532, 260.2, 10.50, , 260.4, , , , , , , , , , , , , 16.132, 260.3, , , , , , , , , , , 4B
2010/05/21, 01:13:39, , , , , , , 33.525090, -118.139988, 260.1, 10.60, , 260.0, , , , , , , , , , , , , 16.134, 260.1, , , , , , , , , , , 4B
2010/05/21, 01:14:39, , , , , , , 33.524585, -118.143423, 259.7, 10.60, , 260.2, , , , , , , , , , , , , 16.145, 259.9, , , , , , , , , , , 4B
2010/05/21, 01:15:39, , , , , , , 33.524073, -118.146873, 259.6, 10.50, , 259.9, , , , , , , , , , , , , 16.177, 259.5, , , , , , , , , , , 4B
2010/05/21, 01:16:39, , , , , , , 33.523525, -118.150315, 259.3, 10.40, , 259.8, , , , , , , , , , , , , 16.221, 259.6, , , , , , , , , , , 4B
2010/05/21, 01:17:39, , , , , , , 33.523020, -118.153593, 259.2, 10.00, , 259.8, , , , , , , , , , , , , 16.259, 259.9, , , , , , , , , , , 4B
2010/05/21, 01:18:39, , , , , , , 33.522535, -118.156925, 260.5, 10.30, , 260.7, , , , , , , , , , , , , 16.263, 260.8, , , , , , , , , , , 4B
2010/05/21, 01:19:39, , , , , , , 33.522055, -118.160348, 260.5, 10.60, , 260.2, , , , , , , , , , , , , 16.239, 260.4, , , , , , , , , , , 4B
2010/05/21, 01:20:39, , , , , , , 33.521540, -118.163740, 260.0, 10.00, , 260.6, , , , , , , , , , , , , 16.216, 260.7, , , , , , , , , , , 4B
2010/05/21, 01:21:39, , , , , , , 33.521073, -118.166915, 259.6, 9.40, , 260.1, , , , , , , , , , , , , 16.196, 260.1, , , , , , , , , , , 4B
2010/05/21, 01:22:39, , , , , , , 33.520607, -118.169918, 259.5, 9.00, , 260.5, , , , , , , , , , , , , 16.204, 260.7, , , , , , , , , , , 4B
2010/05/21, 01:23:39, , , , , , , 33.520183, -118.172782, 259.9, 8.70, , 260.5, , , , , , , , , , , , , 16.231, 260.1, , , , , , , , , , , 4B
2010/05/21, 01:24:39, , , , , , , 33.519758, -118.175600, 259.5, 8.60, , 260.0, , , , , , , , , , , , , 16.247, 260.1, , , , , , , , , , , 4B
2010/05/21, 01:25:39, , , , , , , 33.519322, -118.178432, 259.2, 8.60, , 260.2, , , , , , , , , , , , , 16.256, 260.1, , , , , , , , , , , 4B
2010/05/21, 01:26:39, , , , , , , 33.518875, -118.181242, 259.0, 8.60, , 260.2, , , , , , , , , , , , , 16.259, 260.3, , , , , , , , , , , 4B
2010/05/21, 01:27:39, , , , , , , 33.518430, -118.184080, 259.2, 8.60, , 260.2, , , , , , , , , , , , , 16.256, 260.3, , , , , , , , , , , 4B
2010/05/21, 01:28:39, , , , , , , 33.517987, -118.186878, 259.2, 8.60, , 260.6, , , , , , , , , , , , , 16.246, 260.6, , , , , , , , , , , 4B
2010/05/21, 01:29:39, , , , , , , 33.517547, -118.189733, 259.3, 8.90, , 260.3, , , , , , , , , , , , , 16.235, 260.1, , , , , , , , , , , 4B
2010/05/21, 01:30:39, , , , , , , 33.517102, -118.192585, 259.3, 8.80, , 260.2, , , , , , , , , , , , , 16.223, 260.3, , , , , , , , , , , 4B
2010/05/21, 01:31:39, , , , , , , 33.516665, -118.195445, 259.6, 8.70, , 260.3, , , , , , , , , , , , , 16.207, 260.0, , , , , , , , , , , 4B
2010/05/21, 01:32:39, , , , , , , 33.516190, -118.198323, 258.7, 8.60, , 259.9, , , , , , , , , , , , , 16.197, 260.2, , , , , , , , , , , 4B
2010/05/21, 01:33:39, , , , , , , 33.515710, -118.201173, 258.8, 8.70, , 260.3, , , , , , , , , , , , , 16.199, 260.4, , , , , , , , , , , 4B
2010/05/21, 01:34:39, , , , , , , 33.515262, -118.204050, 260.1, 8.80, , 260.7, , , , , , , , , , , , , 16.205, 260.8, , , , , , , , , , , 4B
2010/05/21, 01:35:39, , , , , , , 33.514792, -118.206877, 258.4, 8.50, , 260.4, , , , , , , , , , , , , 16.207, 260.4, , , , , , , , , , , 4B
2010/05/21, 01:36:39, , , , , , , 33.514312, -118.209812, 259.1, 9.40, , 260.6, , , , , , , , , , , , , 16.191, 260.6, , , , , , , , , , , 4B
2010/05/21, 01:37:39, , , , , , , 33.513790, -118.213062, 259.3, 10.10, , 260.5, , , , , , , , , , , , , 16.152, 260.6, , , , , , , , , , , 4B
2010/05/21, 01:38:39, , , , , , , 33.513248, -118.216457, 259.2, 10.50, , 260.5, , , , , , , , , , , , , 16.105, 260.3, , , , , , , , , , , 4B
2010/05/21, 01:39:39, , , , , , , 33.512712, -118.219907, 259.7, 10.60, , 260.2, , , , , , , , , , , , , 16.072, 260.0, , , , , , , , , , , 4B
2010/05/21, 01:40:39, , , , , , , 33.512158, -118.223333, 258.4, 10.40, , 259.4, , , , , , , , , , , , , 16.054, 259.4, , , , , , , , , , , 4B
2010/05/21, 01:41:39, , , , , , , 33.511598, -118.226703, 259.1, 10.40, , 260.3, , , , , , , , , , , , , 16.033, 260.2, , , , , , , , , , , 4B
2010/05/21, 01:42:39, , , , , , , 33.511043, -118.230138, 259.3, 10.60, , 260.2, , , , , , , , , , , , , 16.027, 260.0, , , , , , , , , , , 4B
2010/05/21, 01:43:39, , , , , , , 33.510472, -118.233563, 258.7, 10.60, , 259.8, , , , , , , , , , , , , 16.032, 260.0, , , , , , , , , , , 4B
2010/05/21, 01:44:39, , , , , , , 33.509897, -118.236990, 258.0, 10.50, , 259.4, , , , , , , , , , , , , 16.047, 259.7, , , , , , , , , , , 4B
2010/05/21, 01:45:39, , , , , , , 33.509725, -118.240427, 270.9, 10.20, , 271.7, , , , , , , , , , , , , 16.077, 270.9, , , , , , , , , , , 4B
2010/05/21, 01:46:39, , , , , , , 33.509798, -118.243880, 273.2, 10.40, , 274.2, , , , , , , , , , , , , 16.116, 274.3, , , , , , , , , , , 4B
2010/05/21, 01:47:39, , , , , , , 33.509967, -118.247373, 273.4, 10.40, , 274.1, , , , , , , , , , , , , 16.142, 274.1, , , , , , , , , , , 4B
2010/05/21, 01:48:39, , , , , , , 33.510200, -118.250815, 278.7, 10.30, , 281.5, , , , , , , , , , , , , 16.137, 282.1, , , , , , , , , , , 4B
2010/05/21, 01:49:39, , , , , , , 33.510678, -118.254132, 278.6, 10.30, , 279.5, , , , , , , , , , , , , 16.109, 279.1, , , , , , , , , , , 4B
2010/05/21, 01:50:38, , , , , , , 33.511177, -118.257472, 281.6, 10.20, , 281.9, , , , , , , , , , , , , 16.074, 281.8, , , , , , , , , , , 4B
2010/05/21, 01:51:38, , , , , , , 33.511712, -118.260852, 280.7, 10.40, , 281.5, , , , , , , , , , , , , 16.038, 281.5, , , , , , , , , , , 4B
2010/05/21, 01:52:38, , , , , , , 33.512245, -118.264278, 280.9, 10.30, , 281.7, , , , , , , , , , , , , 16.014, 281.5, , , , , , , , , , , 4B
2010/05/21, 01:53:38, , , , , , , 33.512785, -118.267703, 280.8, 10.50, , 281.8, , , , , , , , , , , , , 16.007, 281.5, , , , , , , , , , , 4B
2010/05/21, 01:54:38, , , , , , , 33.513317, -118.271100, 280.9, 10.50, , 281.3, , , , , , , , , , , , , 16.012, 281.5, , , , , , , , , , , 4B
2010/05/21, 01:55:38, , , , , , , 33.513845, -118.274490, 280.7, 10.40, , 281.9, , , , , , , , , , , , , 16.024, 281.8, , , , , , , , , , , 4B
2010/05/21, 01:56:38, , , , , , , 33.514368, -118.277892, 280.3, 10.40, , 281.6, , , , , , , , , , , , , 16.041, 281.8, , , , , , , , , , , 4B
2010/05/21, 01:57:38, , , , , , , 33.514910, -118.281285, 280.6, 10.40, , 281.9, , , , , , , , , , , , , 16.064, 281.6, , , , , , , , , , , 4B
2010/05/21, 01:58:38, , , , , , , 33.515433, -118.284653, 281.4, 10.20, , 283.0, , , , , , , , , , , , , 16.089, 282.8, , , , , , , , , , , 4B
2010/05/21, 01:59:38, , , , , , , 33.515878, -118.287373, 281.8, 7.10, , 284.2, , , , , , , , , , , , , 16.118, 284.4, , , , , , , , , , , 4B
2010/05/21, 02:00:39, , , , , , , 33.516248, -118.289430, 281.6, 7.20, , 283.0, , , , , , , , , , , , , 16.150, 282.8, , , , , , , , , , , 4B
2010/05/21, 02:01:39, , , , , , , 33.516650, -118.292155, 280.0, 8.80, , 282.1, , , , , , , , , , , , , 16.182, 281.7, , , , , , , , , , , 4B
2010/05/21, 02:02:39, , , , , , , 33.517113, -118.295228, 280.5, 9.60, , 281.6, , , , , , , , , , , , , 16.210, 281.7, , , , , , , , , , , 4B
2010/05/21, 02:03:39, , , , , , , 33.517595, -118.298417, 280.1, 9.80, , 281.6, , , , , , , , , , , , , 16.235, 281.6, , , , , , , , , , , 4B
2010/05/21, 02:04:39, , , , , , , 33.518132, -118.301667, 281.5, 10.00, , 282.4, , , , , , , , , , , , , 16.252, 282.2, , , , , , , , , , , 4B
2010/05/21, 02:05:39, , , , , , , 33.518655, -118.304940, 280.3, 10.20, , 281.4, , , , , , , , , , , , , 16.254, 281.6, , , , , , , , , , , 4B
2010/05/21, 02:06:39, , , , , , , 33.519185, -118.308288, 280.6, 10.50, , 281.3, , , , , , , , , , , , , 16.242, 281.2, , , , , , , , , , , 4B
2010/05/21, 02:07:39, , , , , , , 33.519717, -118.311672, 280.5, 10.50, , 281.5, , , , , , , , , , , , , 16.221, 281.6, , , , , , , , , , , 4B
2010/05/21, 02:08:39, , , , , , , 33.520243, -118.314863, 281.0, 9.40, , 282.2, , , , , , , , , , , , , 16.194, 282.3, , , , , , , , , , , 4B
2010/05/21, 02:09:34, , , , , , , 33.520777, -118.318110, 281.2, 10.20, , 282.2, , , , , , , , , , , , , 16.176, 282.3, , , , , , , , , , , 4B
2010/05/21, 02:09:38, , , , , , , , , , , , , , , , , , , , , , , , , , , , , , , , , , , , , 4B
2010/05/21, 02:10:38, , , , , , , 33.521313, -118.321455, 280.0, 10.40, , 281.9, , , , , , , , , , , , , 16.148, 281.8, , , , , , , , , , , 4B
2010/05/21, 02:11:55, , , , , , , 33.522022, -118.325813, 280.1, 9.60, , 282.0, , , , , , , , , , , , , , 282.0, , , , , , , , , , , 4B
2010/05/21, 02:12:37, , , , , , , 33.522363, -118.327918, 281.0, 9.60, , 282.2, , , , , , , , , , , , , 16.101, 281.9, , , , , , , , , , , 4B
2010/05/21, 02:13:39, , , , , , , 33.522862, -118.331142, 279.9, 9.80, , 281.7, , , , , , , , , , , , , 16.062, 281.8, , , , , , , , , , , 4B
2010/05/21, 02:14:38, , , , , , , 33.523377, -118.334412, 281.2, 10.00, , 282.5, , , , , , , , , , , , , 16.030, 282.4, , , , , , , , , , , 4B
2010/05/21, 02:15:38, , , , , , , 33.523910, -118.337675, 280.6, 9.80, , 282.2, , , , , , , , , , , , , 15.982, 282.0, , , , , , , , , , , 4B
2010/05/21, 02:16:38, , , , , , , 33.524433, -118.340948, 281.4, 10.30, , 282.2, , , , , , , , , , , , , 15.921, 282.5, , , , , , , , , , , 4B
2010/05/21, 02:17:37, , , , , , , 33.524965, -118.344158, 281.2, 9.80, , 281.8, , , , , , , , , , , , , 15.853, 282.2, , , , , , , , , , , 4B
2010/05/21, 02:18:37, , , , , , , 33.525502, -118.347437, 281.5, 10.20, , 281.9, , , , , , , , , , , , , 15.791, 281.3, , , , , , , , , , , 4B
2010/05/21, 02:19:37, , , , , , , 33.526065, -118.350733, 282.0, 10.10, , 282.4, , , , , , , , , , , , , 15.736, 282.3, , , , , , , , , , , 4B
2010/05/21, 02:20:38, , , , , , , 33.526627, -118.353923, 282.2, 9.50, , 282.3, , , , , , , , , , , , , 15.692, 282.1, , , , , , , , , , , 4B
2010/05/21, 02:21:38, , , , , , , 33.527182, -118.356998, 282.3, 9.60, , 282.3, , , , , , , , , , , , , 15.659, 282.5, , , , , , , , , , , 4B
2010/05/21, 02:22:38, , , , , , , 33.527763, -118.360173, 282.2, 9.60, , 282.0, , , , , , , , , , , , , 15.636, 281.8, , , , , , , , , , , 4B
2010/05/21, 02:23:38, , , , , , , 33.528315, -118.363250, 282.4, 9.30, , 282.6, , , , , , , , , , , , , 15.623, 282.7, , , , , , , , , , , 4B
2010/05/21, 02:24:38, , , , , , , 33.528872, -118.366402, 282.0, 9.80, , 281.9, , , , , , , , , , , , , 15.616, 282.4, , , , , , , , , , , 4B
2010/05/21, 02:30:02, , , , , , , 33.531423, -118.383725, 278.3, 9.10, , 279.1, , , , , , , , , , , , , , 279.0, , , , , , , , , , , 4B
2010/05/21, 02:30:39, , , , , , , 33.531652, -118.385488, 278.6, 9.60, , 279.3, , , , , , , , , , , , , 15.614, 279.1, , , , , , , , , , , 4B
2010/05/21, 02:31:39, , , , , , , 33.532058, -118.388645, 278.6, 9.70, , 279.0, , , , , , , , , , , , , 15.616, 278.8, , , , , , , , , , , 4B
2010/05/21, 02:32:39, , , , , , , 33.532468, -118.391890, 278.4, 10.00, , 279.0, , , , , , , , , , , , , 15.608, 278.8, , , , , , , , , , , 4B
2010/05/21, 02:33:39, , , , , , , 33.532857, -118.395138, 277.8, 9.70, , 279.0, , , , , , , , , , , , , 15.596, 278.9, , , , , , , , , , , 4B
2010/05/21, 02:34:39, , , , , , , 33.533253, -118.398363, 278.3, 9.80, , 279.5, , , , , , , , , , , , , 15.581, 279.5, , , , , , , , , , , 4B
2010/05/21, 02:35:39, , , , , , , 33.533663, -118.401602, 278.5, 9.90, , 278.9, , , , , , , , , , , , , 15.567, 278.7, , , , , , , , , , , 4B
2010/05/21, 02:36:39, , , , , , , 33.534032, -118.404842, 277.4, 9.90, , 278.8, , , , , , , , , , , , , 15.563, 278.7, , , , , , , , , , , 4B
2010/05/21, 02:37:39, , , , , , , 33.534387, -118.408082, 278.0, 9.70, , 279.7, , , , , , , , , , , , , 15.568, 279.6, , , , , , , , , , , 4B
2010/05/21, 02:38:43, , , , , , , 33.534810, -118.411620, 278.0, 9.80, , 279.3, , , , , , , , , , , , , 15.570, 279.2, , , , , , , , , , , 4B
2010/05/21, 02:39:39, , , , , , , 33.535150, -118.414640, 277.5, 9.60, , 279.2, , , , , , , , , , , , , 15.575, 279.2, , , , , , , , , , , 4B
2010/05/21, 02:40:39, , , , , , , 33.535498, -118.417785, 276.9, 9.30, , 278.7, , , , , , , , , , , , , 15.585, 278.6, , , , , , , , , , , 4B
2010/05/21, 02:41:39, , , , , , , 33.535843, -118.420902, 277.3, 9.60, , 279.0, , , , , , , , , , , , , 15.592, 278.9, , , , , , , , , , , 4B
2010/05/21, 02:42:39, , , , , , , 33.536203, -118.424055, 277.5, 9.70, , 279.3, , , , , , , , , , , , , 15.606, 279.2, , , , , , , , , , , 4B
2010/05/21, 02:43:39, , , , , , , 33.536553, -118.427117, 278.1, 9.30, , 279.3, , , , , , , , , , , , , 15.623, 279.1, , , , , , , , , , , 4B
2010/05/21, 02:44:39, , , , , , , 33.536883, -118.430138, 277.5, 9.40, , 279.0, , , , , , , , , , , , , 15.641, 279.0, , , , , , , , , , , 4B
2010/05/21, 02:45:39, , , , , , , 33.537242, -118.433420, 277.2, 9.60, , 279.2, , , , , , , , , , , , , 15.657, 279.1, , , , , , , , , , , 4B
2010/05/21, 02:46:40, , , , , , , 33.537592, -118.436597, 277.8, 9.70, , 279.4, , , , , , , , , , , , , 15.669, 279.5, , , , , , , , , , , 4B